Temp
79 86 90 84 71 72 67 67 74 72 73 79 79 75 73 75 71 66 83 87 86 85 86 79 74 76 77 77 77 77 77 77 78 78 77 77 76 76 76 76 75 75 76 77 78 78 79 77 76
88 84 85 82 70 68 67 72 70 74 77 79 78 77 75 73 83 84 86 86 87 85 86 83 72 74 76 76 76 76 76 77 78 78 78 77 77 76 76 76 76 75 76 77 78 78 78 76 75
84 85 80 76 72 65 67 72 73 76 78 76 75 79 76 76 84 84 87 84 86 84 84 83 72 73 75 76 76 76 76 76 77 77 77 77 77 77 76 76 76 76 76 77 78 78 78 75 75
84 83 82 73 66 69 71 74 76 76 77 76 76 73 82 85 83 87 87 84 83 84 83 77 70 71 74 75 75 75 75 76 76 76 77 77 77 76 76 76 76 76 76 77 78 78 77 75 74
85 82 72 70 68 72 75 76 76 73 76 77 77 73 77 86 86 87 86 85 81 83 83 79 68 70 72 74 74 75 75 75 75 75 76 76 76 76 76 75 75 75 76 76 77 77 76 74 74
78 79 70 69 69 72 75 76 75 76 77 76 74 75 77 85 82 81 83 84 85 82 81 79 70 67 69 71 73 74 74 75 74 75 74 75 75 75 74 75 75 75 75 75 76 76 75 73 74
73 72 69 68 68 69 72 77 74 74 76 74 77 70 80 80 81 80 80 81 81 81 78 78 77 75 65 67 69 71 73 73 74 74 74 73 72 73 73 73 73 74 74 74 75 75 73 73 73
77 74 68 70 68 67 73 75 76 74 73 78 78 70 68 75 80 81 80 82 82 80 78 77 77 77 75 76 67 67 69 71 71 71 70 69 69 69 69 69 70 73 73 74 74 74 72 73 71
77 69 67 67 67 70 75 71 78 78 73 76 76 74 75 78 77 74 73 73 74 75 76 78 77 76 77 77 76 66 66 67 68 68 66 67 75 78 75 71 70 71 72 73 73 72 71 70 67
72 68 68 73 73 71 74 71 72 72 73 69 71 75 74 72 70 68 68 67 69 70 72 74 75 75 75 77 76 74 73 73 73 75 76 74 77 78 77 68 64 67 66 69 72 71 67 66 66
71 67 70 70 72 72 70 71 71 70 64 66 66 69 68 68 66 66 66 66 67 70 71 73 73 73 74 73 71 72 70 70 72 74 76 76 76 77 76 73 71 72 64 70 69 65 67 65 65
66 70 70 68 70 68 68 70 69 69 66 73 68 67 65 64 64 63 63 65 66 67 69 71 72 71 72 73 70 69 68 69 71 73 74 74 73 74 74 72 71 66 65 65 63 62 61 61 63
66 68 68 68 67 67 68 68 66 65 72 71 66 63 62 62 63 64 65 65 66 65 67 70 71 71 71 71 72 68 67 67 69 72 73 73 72 72 74 72 68 65 63 63 62 64 60 59 59
67 66 67 66 66 67 64 67 64 67 72 63 61 60 61 61 62 62 62 63 64 65 66 69 69 70 72 70 70 69 66 66 68 69 71 72 72 72 72 70 67 64 64 63 61 61 60 60 59
66 63 66 65 65 64 65 62 63 69 69 60 59 60 60 61 62 60 61 61 63 64 66 66 68 69 68 69 69 69 67 64 64 67 71 71 71 71 72 68 67 65 64 63 63 63 61 60 60
63 63 61 66 65 62 64 56 66 69 63 57 57 58 59 60 60 60 61 61 62 63 63 65 67 66 66 65 67 68 67 63 65 66 68 69 70 71 71 66 66 64 63 62 60 60 59 58 59
63 58 58 59 65 62 60 55 65 63 58 54 55 56 57 58 59 59 60 61 62 62 62 62 63 64 63 63 64 64 65 65 62 66 65 68 67 67 69 66 65 63 63 63 60 59 60 57 58
54 55 57 56 62 61 57 58 63 57 54 53 54 54 55 55 56 58 60 60 61 62 62 61 61 62 63 62 62 61 61 62 62 63 65 67 66 66 65 65 64 63 61 62 61 59 59 59 59
57 55 54 60 59 56 56 56 59 52 53 51 51 52 53 54 57 59 59 60 59 60 60 59 58 60 61 60 57 56 54 56 57 58 62 66 67 64 63 62 62 63 60 61 62 59 58 57 58
56 54 55 59 59 55 56 55 53 50 50 50 49 51 52 54 55 56 57 58 57 57 59 59 58 58 59 59 59 57 55 54 56 57 58 58 65 65 61 61 60 61 60 59 61 58 56 55 57
56 53 51 48 54 58 56 52 46 49 51 51 52 53 54 52 51 53 54 55 56 56 56 57 58 57 58 58 59 57 56 53 51 52 51 54 54 62 62 61 59 59 60 58 59 57 57 54 55
48 51 50 48 47 43 55 39 48 46 48 49 49 51 51 52 52 52 52 53 54 54 55 56 57 56 56 57 56 54 52 49 51 50 50 51 53 54 61 60 59 60 58 58 58 59 57 56 53
52 51 49 49 46 47 47 43 50 49 46 45 48 49 50 51 50 51 51 52 54 54 53 54 55 55 55 55 56 54 53 53 53 50 49 50 51 53 54 59 58 58 58 58 58 57 57 57 56
51 51 52 52 49 35 45 41 45 47 44 43 47 48 48 49 50 50 52 52 52 53 52 52 53 53 53 54 55 54 52 52 51 49 48 47 49 52 51 57 59 57 58 57 58 58 58 57 57
51 48 37 36 37 35 44 37 43 44 44 44 45 46 47 49 48 48 48 49 49 48 49 50 50 48 51 50 52 52 52 52 51 50 47 46 44 44 47 48 57 57 57 57 58 58 57 56 56
46 45 35 25 29 33 39 30 41 47 48 48 49 47 47 47 47 47 47 47 47 47 47 45 43 43 45 46 47 50 51 52 52 51 48 47 44 44 47 49 47 58 57 57 58 58 57 56 55
43 39 43 33 31 25 35 42 44 46 46 46 45 45 44 44 45 45 46 45 45 45 44 42 38 37 37 38 39 39 46 51 50 51 51 47 47 45 44 43 49 49 56 57 57 57 57 56 55
43 46 32 34 20 20 34 35 38 39 39 41 41 41 42 43 43 44 44 44 45 43 40 37 35 33 33 33 35 37 39 41 43 50 49 48 47 45 44 44 44 47 55 55 55 56 56 55 55
38 37 36 36 33 22 21 32 44 39 40 38 40 41 41 42 42 42 42 44 42 40 37 34 32 31 31 32 33 34 35 37 39 42 50 49 48 45 43 43 42 45 44 55 53 54 54 53 53
40 39 39 28 27 28 26 25 46 44 43 41 40 41 42 42 42 42 42 41 38 36 34 31 30 30 30 31 30 31 33 35 37 39 40 49 48 46 44 42 41 41 44 52 53 52 53 52 52
MSLP
1010.51 1010.02 1009.40 1008.79 1007.97 1006.49 1006.08 1006.66 1006.99 1006.79 1007.00 1007.48 1007.84 1007.93 1007.93 1007.95 1007.46 1007.30 1007.94 1008.07 1008.23 1008.43 1008.49 1009.18 1009.54 1009.69 1009.93 1010.09 1010.17 1010.38 1010.66 1010.78 1010.95 1011.20 1011.33 1011.50 1011.71 1011.73 1011.78 1011.75 1011.76 1011.81 1011.91 1012.11 1012.09 1012.20 1012.20 1012.50 1012.80
1010.00 1009.92 1009.26 1007.71 1006.60 1005.13 1005.99 1006.68 1006.72 1007.29 1007.69 1008.05 1008.04 1007.95 1007.67 1007.29 1007.30 1007.45 1007.57 1008.39 1008.49 1008.65 1008.56 1008.91 1009.52 1009.67 1009.78 1010.09 1010.25 1010.39 1010.50 1010.67 1010.90 1010.96 1011.04 1011.24 1011.42 1011.55 1011.64 1011.60 1011.65 1011.67 1011.65 1011.78 1011.93 1011.99 1012.03 1012.39 1012.71
1010.23 1009.73 1008.07 1006.64 1006.00 1005.59 1005.71 1006.45 1006.81 1007.27 1007.82 1008.02 1007.98 1008.00 1008.01 1007.61 1007.50 1007.87 1008.13 1008.73 1008.54 1008.77 1008.96 1009.11 1009.57 1009.70 1009.89 1009.95 1010.15 1010.41 1010.52 1010.64 1010.72 1010.87 1011.04 1011.02 1011.13 1011.27 1011.35 1011.41 1011.45 1011.49 1011.53 1011.47 1011.59 1011.71 1012.03 1012.32 1012.68
1009.56 1008.79 1007.90 1006.34 1006.10 1006.56 1006.44 1006.78 1007.21 1007.18 1007.61 1008.25 1008.30 1007.79 1007.70 1008.05 1008.15 1008.31 1008.67 1009.01 1008.95 1008.88 1009.15 1009.49 1009.92 1010.13 1009.99 1009.82 1010.07 1010.20 1010.39 1010.59 1010.70 1010.78 1010.88 1011.02 1011.03 1011.03 1011.06 1011.09 1011.19 1011.25 1011.24 1011.33 1011.30 1011.37 1011.74 1012.32 1012.63
1009.55 1008.18 1006.74 1006.25 1006.36 1006.71 1007.06 1007.60 1007.83 1007.72 1007.66 1007.85 1008.24 1007.84 1007.75 1007.90 1008.89 1009.01 1009.10 1009.23 1009.32 1009.12 1009.09 1009.49 1010.14 1010.35 1010.11 1010.12 1010.03 1010.13 1010.26 1010.38 1010.48 1010.61 1010.75 1010.83 1010.97 1010.96 1010.86 1010.81 1010.78 1010.97 1011.05 1011.11 1011.16 1011.11 1011.25 1012.13 1012.63
1008.49 1008.03 1006.41 1005.73 1006.29 1006.87 1007.16 1007.70 1007.93 1007.66 1007.94 1008.13 1008.39 1008.09 1007.87 1008.70 1009.47 1009.96 1009.91 1009.65 1009.62 1009.68 1009.66 1009.95 1010.08 1010.24 1010.26 1010.16 1010.16 1010.12 1010.06 1010.20 1010.32 1010.35 1010.54 1010.65 1010.70 1010.79 1010.86 1010.68 1010.65 1010.69 1010.82 1010.81 1010.85 1010.94 1011.17 1011.72 1012.42
1008.59 1007.60 1006.59 1006.58 1006.78 1006.96 1007.45 1008.04 1007.92 1008.23 1007.99 1008.49 1008.92 1008.63 1008.14 1009.17 1010.03 1010.35 1010.21 1010.18 1010.15 1010.09 1010.25 1010.18 1010.06 1010.05 1010.48 1010.28 1010.08 1010.00 1009.92 1009.92 1010.00 1010.17 1010.19 1010.36 1010.50 1010.53 1010.66 1010.61 1010.49 1010.48 1010.45 1010.47 1010.55 1010.71 1011.17 1011.46 1012.14
1009.07 1008.22 1007.10 1007.03 1006.96 1007.27 1008.22 1008.37 1008.46 1008.63 1008.68 1009.51 1009.81 1009.43 1010.00 1010.75 1010.91 1010.79 1010.63 1010.14 1010.01 1010.11 1010.32 1010.31 1010.11 1010.00 1010.01 1009.66 1009.81 1009.77 1009.71 1009.61 1009.67 1009.79 1009.96 1010.07 1010.21 1010.23 1010.32 1010.45 1010.44 1010.23 1010.18 1010.12 1010.37 1010.47 1011.00 1011.49 1011.91
1009.89 1008.45 1007.37 1007.61 1007.68 1007.67 1008.46 1008.66 1008.74 1009.26 1009.34 1009.74 1010.50 1011.02 1011.75 1011.73 1011.86 1011.60 1011.41 1011.23 1011.26 1011.06 1010.92 1010.26 1010.03 1010.09 1009.79 1009.49 1009.16 1009.43 1009.60 1009.48 1009.55 1009.53 1009.65 1009.78 1009.75 1009.54 1009.76 1009.78 1009.98 1009.90 1009.79 1009.77 1010.21 1010.45 1010.91 1011.52 1012.12
1009.60 1008.78 1008.38 1008.78 1008.67 1008.63 1008.93 1009.39 1009.61 1009.39 1009.24 1010.61 1011.29 1011.86 1012.63 1013.12 1012.89 1012.47 1012.34 1012.30 1012.06 1011.67 1011.53 1011.24 1010.64 1010.07 1009.77 1009.41 1009.21 1008.85 1009.06 1009.11 1009.11 1009.01 1009.07 1009.24 1008.92 1008.91 1008.87 1009.34 1009.54 1009.88 1009.67 1009.72 1010.07 1010.65 1011.04 1011.43 1012.02
1009.87 1009.34 1009.73 1009.83 1009.71 1009.57 1009.81 1009.65 1010.25 1009.95 1010.68 1011.94 1012.12 1012.55 1013.52 1013.95 1014.14 1013.87 1013.57 1013.48 1013.06 1012.65 1012.19 1011.79 1011.26 1010.65 1010.11 1009.65 1009.69 1009.02 1008.97 1008.83 1008.73 1008.44 1008.28 1008.49 1008.68 1008.35 1008.54 1009.03 1009.35 1009.47 1009.74 1009.93 1010.43 1011.20 1011.06 1011.47 1011.85
1010.27 1010.29 1010.44 1010.56 1010.48 1010.56 1010.56 1010.69 1010.28 1010.96 1012.24 1012.45 1013.48 1014.22 1014.72 1014.58 1014.70 1014.72 1014.34 1014.01 1013.44 1012.93 1012.59 1012.17 1011.65 1011.09 1010.51 1009.85 1009.58 1009.48 1009.21 1008.75 1008.42 1008.12 1008.00 1007.88 1008.27 1008.20 1008.35 1008.69 1009.02 1009.51 1010.02 1010.16 1010.81 1011.46 1011.99 1011.07 1012.15
1010.47 1010.61 1011.03 1011.26 1011.26 1011.29 1011.48 1010.93 1011.25 1011.94 1012.38 1013.01 1014.41 1015.41 1015.60 1015.56 1015.40 1015.35 1015.15 1014.75 1014.17 1013.65 1013.35 1012.79 1012.15 1011.40 1010.79 1010.31 1009.74 1009.33 1009.12 1008.96 1008.31 1007.76 1007.75 1007.71 1007.84 1007.81 1007.85 1008.29 1008.83 1009.46 1009.87 1010.03 1010.69 1011.32 1011.53 1011.59 1012.42
1010.87 1011.00 1010.94 1011.37 1011.45 1011.57 1011.74 1011.25 1011.76 1012.17 1012.67 1014.27 1015.34 1015.82 1016.21 1016.17 1016.11 1015.91 1015.48 1015.09 1014.57 1014.13 1013.62 1013.05 1012.53 1011.91 1011.30 1010.58 1009.92 1009.45 1009.11 1008.60 1008.28 1007.68 1007.33 1007.36 1007.32 1007.37 1007.45 1007.86 1008.61 1008.98 1009.41 1009.71 1010.42 1010.72 1011.37 1011.24 1012.06
1011.25 1010.79 1010.86 1011.36 1011.59 1011.54 1011.71 1011.13 1011.16 1012.09 1012.95 1014.82 1015.72 1016.04 1016.52 1016.61 1016.56 1016.43 1016.34 1015.96 1015.66 1014.96 1014.33 1013.61 1012.78 1012.34 1011.69 1011.04 1010.22 1009.38 1009.05 1008.59 1008.06 1007.57 1006.90 1006.83 1007.06 1006.85 1007.04 1007.31 1008.01 1008.54 1009.00 1009.40 1010.03 1010.61 1011.04 1011.49 1012.17
1010.86 1010.76 1010.26 1010.67 1011.26 1011.87 1011.78 1010.55 1011.01 1012.09 1013.45 1015.03 1015.95 1016.41 1016.58 1016.51 1016.76 1016.88 1016.68 1016.37 1015.86 1015.12 1014.44 1014.08 1013.49 1012.91 1012.34 1011.76 1010.82 1009.83 1008.79 1008.47 1007.75 1007.12 1006.79 1006.34 1006.40 1006.39 1006.51 1006.91 1007.40 1008.03 1008.45 1009.21 1009.65 1010.36 1010.82 1011.47 1012.17
1010.05 1009.86 1010.29 1010.64 1011.04 1011.57 1011.84 1011.23 1011.29 1012.87 1014.27 1015.73 1016.64 1017.12 1017.28 1017.10 1017.06 1017.23 1016.98 1016.47 1016.04 1015.52 1014.98 1014.58 1014.02 1013.27 1012.62 1011.96 1011.10 1010.25 1009.42 1008.38 1007.79 1006.84 1006.41 1005.93 1005.98 1005.91 1006.00 1006.38 1006.95 1007.33 1008.09 1008.63 1009.31 1010.13 1010.63 1011.16 1012.16
1010.07 1010.40 1010.62 1010.74 1010.97 1011.41 1011.53 1011.25 1012.06 1014.26 1015.68 1016.71 1017.28 1017.72 1017.77 1017.52 1017.47 1017.52 1017.49 1017.00 1016.46 1015.77 1015.30 1014.86 1014.34 1013.64 1012.85 1011.95 1011.21 1010.50 1009.53 1008.62 1007.81 1006.83 1005.92 1005.48 1005.27 1005.34 1005.79 1005.58 1006.36 1006.84 1007.64 1008.05 1008.92 1009.63 1010.45 1010.32 1011.12
1011.26 1011.17 1010.98 1010.65 1011.48 1011.75 1011.44 1011.48 1012.27 1015.39 1016.41 1017.24 1017.88 1017.87 1017.78 1017.57 1017.83 1017.72 1017.42 1016.96 1016.46 1015.92 1015.40 1014.88 1014.36 1013.70 1012.81 1011.61 1010.89 1010.35 1009.71 1008.69 1007.76 1007.01 1006.15 1004.93 1004.65 1004.38 1004.20 1005.37 1005.20 1006.01 1006.62 1007.37 1008.04 1009.00 1009.80 1010.37 1011.14
1011.62 1011.18 1010.94 1010.86 1011.45 1011.83 1011.16 1011.23 1012.81 1015.10 1016.31 1017.15 1017.76 1017.69 1017.64 1017.86 1017.80 1017.38 1017.01 1016.81 1016.46 1016.01 1015.46 1014.59 1014.16 1013.61 1012.74 1011.85 1010.76 1010.25 1009.72 1009.06 1007.95 1006.59 1005.80 1005.15 1004.04 1003.86 1003.89 1004.34 1004.31 1005.24 1005.85 1006.73 1007.18 1008.01 1009.23 1009.80 1010.15
1011.95 1011.65 1011.85 1012.28 1012.05 1011.60 1010.62 1010.62 1012.66 1014.94 1016.10 1016.84 1017.35 1017.52 1017.51 1017.65 1017.35 1017.07 1016.87 1016.86 1016.48 1016.03 1015.41 1014.70 1013.91 1013.23 1012.58 1011.67 1010.53 1009.64 1008.94 1008.35 1007.77 1006.71 1005.91 1004.60 1004.49 1003.27 1003.15 1003.85 1003.50 1004.24 1004.72 1005.60 1006.10 1007.16 1007.85 1008.79 1009.75
1012.59 1012.97 1012.75 1012.29 1012.05 1011.30 1012.14 1010.85 1011.71 1014.07 1015.31 1016.38 1016.88 1017.21 1017.55 1017.32 1017.02 1016.88 1016.67 1016.47 1016.12 1015.63 1014.81 1014.00 1012.99 1012.38 1011.76 1010.85 1009.94 1009.19 1008.35 1007.71 1007.34 1006.63 1005.91 1004.79 1004.75 1003.99 1002.13 1002.55 1002.94 1002.39 1003.52 1004.14 1004.82 1006.01 1006.79 1007.78 1008.94
1013.20 1013.60 1013.37 1012.81 1012.06 1011.35 1011.36 1011.49 1010.41 1012.81 1014.08 1015.75 1016.66 1017.16 1017.31 1017.24 1017.22 1016.81 1016.74 1016.44 1015.87 1015.23 1014.34 1013.33 1012.32 1011.56 1010.85 1010.04 1009.21 1008.31 1007.39 1006.88 1006.49 1006.17 1005.49 1004.74 1003.57 1002.81 1003.38 1001.08 1001.69 1002.16 1001.79 1003.52 1003.84 1004.96 1005.72 1006.69 1007.75
1014.44 1013.56 1012.84 1011.88 1011.63 1011.56 1010.66 1011.78 1010.73 1012.24 1014.06 1015.54 1016.24 1016.69 1017.03 1017.15 1017.11 1017.17 1017.15 1016.59 1015.77 1014.86 1014.01 1012.99 1011.93 1011.12 1010.13 1009.31 1008.36 1007.33 1006.66 1006.00 1005.49 1005.14 1005.10 1004.40 1003.03 1002.76 1002.05 1000.21 1000.60 1001.13 1001.67 1001.91 1002.83 1003.91 1004.74 1005.75 1006.81
1014.74 1014.16 1012.97 1011.86 1011.79 1011.20 1011.89 1012.37 1010.83 1012.68 1014.54 1015.69 1016.33 1016.67 1017.19 1017.34 1017.24 1017.02 1016.58 1016.03 1015.49 1014.58 1013.56 1012.53 1011.67 1010.60 1010.02 1008.98 1008.02 1006.90 1006.10 1005.28 1004.73 1004.06 1004.03 1003.94 1003.70 1003.06 1002.25 1001.82 999.44 999.74 1000.38 1001.03 1002.00 1002.92 1003.77 1004.49 1005.91
1015.65 1015.61 1015.66 1014.55 1013.74 1013.02 1013.81 1012.32 1011.53 1012.74 1014.59 1015.60 1016.18 1016.82 1017.13 1017.33 1017.38 1017.09 1016.71 1016.23 1015.54 1014.62 1013.77 1013.14 1012.43 1011.05 1010.34 1009.02 1007.82 1006.54 1005.53 1004.41 1003.99 1003.36 1003.21 1003.18 1003.60 1003.04 1002.43 1002.01 1001.67 998.79 999.65 1000.30 1000.36 1001.72 1002.77 1003.74 1005.09
1016.42 1016.71 1017.25 1016.75 1016.25 1015.71 1012.72 1011.66 1012.41 1013.26 1014.22 1015.36 1016.27 1016.63 1017.19 1017.60 1017.50 1017.20 1016.58 1016.09 1015.28 1014.50 1013.81 1013.52 1012.87 1011.96 1011.16 1010.15 1008.95 1007.96 1006.05 1004.14 1003.40 1002.58 1002.05 1002.21 1002.37 1002.57 1002.39 1002.39 1000.81 1000.85 998.19 998.62 1000.01 1000.38 1001.40 1002.89 1004.14
1017.28 1017.49 1018.07 1018.38 1017.54 1015.65 1012.67 1012.30 1012.20 1013.57 1014.72 1015.73 1015.96 1016.84 1017.36 1017.40 1017.13 1016.66 1016.16 1015.70 1014.81 1014.37 1013.94 1013.63 1013.46 1012.48 1011.49 1010.56 1009.34 1008.05 1006.81 1005.38 1004.27 1001.93 1001.37 1001.29 1001.37 1001.44 1001.40 1001.38 1001.01 999.56 997.75 997.66 998.51 999.80 1000.47 1001.82 1002.95
1017.96 1017.89 1018.31 1018.47 1018.02 1017.12 1015.15 1012.34 1012.83 1014.04 1015.20 1016.02 1016.60 1016.86 1017.08 1016.78 1016.30 1015.84 1015.33 1014.85 1014.74 1014.45 1014.13 1013.56 1013.09 1012.27 1011.29 1010.35 1009.05 1007.79 1006.73 1005.59 1004.46 1002.97 1000.63 1000.13 1000.22 1000.81 1000.71 1000.71 1000.84 999.97 999.52 996.87 997.73 998.55 999.65 1000.74 1002.13
1017.57 1017.43 1017.60 1017.77 1017.82 1017.59 1016.95 1012.75 1013.33 1013.82 1015.04 1015.98 1016.31 1016.75 1016.97 1016.90 1016.57 1015.93 1015.53 1015.30 1015.10 1014.86 1014.22 1013.49 1012.81 1011.99 1011.21 1010.09 1009.04 1007.71 1006.65 1005.55 1004.02 1002.89 1001.44 999.65 999.04 999.32 999.62 1000.03 1000.05 999.65 998.77 997.46 996.53 996.91 998.43 999.50 1000.95
Wind_Speed
6 4 3 4 6 6 5 5 4 4 5 7 5 8 13 11 8 8 2 3 2 3 4 8 7 9 10 10 10 12 13 15 15 14 13 12 11 12 13 12 12 12 12 12 12 13 13 14 13
2 2 5 3 6 1 5 3 5 7 8 7 7 6 8 9 8 10 9 10 5 4 5 7 9 7 9 9 10 11 12 13 13 13 13 13 12 13 13 13 13 14 14 13 13 14 13 15 14
5 4 5 3 2 4 2 2 4 4 2 4 5 1 6 7 7 5 9 8 6 5 5 5 7 9 10 10 11 11 12 12 14 13 13 14 14 14 14 14 13 15 14 14 15 15 13 15 15
4 5 5 6 3 3 2 4 5 5 6 1 5 9 1 3 7 9 10 9 8 7 5 3 1 7 11 11 11 11 11 13 14 13 14 14 14 13 13 14 14 15 16 16 16 16 13 15 17
4 4 4 1 3 2 1 4 6 6 4 5 3 7 10 4 8 11 13 11 9 9 6 7 5 11 12 13 12 12 12 13 14 14 13 13 14 14 15 13 11 12 14 17 16 15 16 16 18
4 3 5 1 3 1 1 3 5 6 5 4 4 10 2 7 16 17 18 14 13 11 9 8 6 8 11 11 12 13 13 14 15 13 14 13 14 14 14 12 11 13 15 17 16 15 17 18 19
5 4 4 2 3 2 2 4 6 8 9 9 7 5 4 22 21 15 14 14 15 13 11 10 10 9 10 12 10 11 12 15 14 13 13 14 13 12 13 13 12 14 14 16 18 16 18 19 20
5 4 2 2 4 2 3 7 3 7 7 3 7 9 16 20 19 17 17 17 15 10 11 13 12 12 10 12 13 11 11 12 12 11 11 10 10 10 11 11 12 13 12 14 18 18 21 21 19
3 5 1 3 3 4 3 7 7 1 4 9 6 13 17 17 19 18 17 19 17 15 18 16 11 14 14 12 11 12 11 10 11 10 10 10 9 12 14 12 12 11 10 13 16 20 21 19 19
4 4 4 5 6 7 9 7 8 5 12 14 14 16 19 17 18 18 20 19 21 22 20 17 17 15 14 12 14 9 11 11 10 12 13 10 12 10 8 1 4 5 8 10 18 20 23 18 10
2 4 3 3 5 9 8 4 3 6 12 11 14 16 16 17 19 19 19 20 21 20 18 20 18 16 14 11 9 6 5 7 9 15 13 10 9 8 6 4 4 4 4 3 5 8 12 12 10
5 5 1 1 4 7 7 6 4 12 10 15 15 15 15 17 18 20 21 22 23 22 22 20 20 16 15 9 8 9 7 7 10 11 15 10 7 8 7 6 5 5 4 9 6 5 5 11 7
3 6 1 3 8 6 6 6 4 11 14 17 16 15 15 16 17 18 19 20 21 22 21 21 20 18 15 13 9 9 10 9 9 11 13 11 10 10 8 7 6 5 6 7 7 8 8 7 4
2 6 5 1 2 3 8 2 4 4 15 19 14 14 14 16 18 19 23 22 22 20 21 20 20 19 17 15 13 10 8 11 12 11 12 15 12 10 9 7 7 7 7 7 7 8 9 12 11
4 5 10 6 2 1 11 7 5 6 13 13 11 12 12 16 19 20 21 21 22 20 21 22 20 20 20 19 16 10 10 9 11 13 15 15 14 14 11 8 9 9 8 10 8 9 8 9 11
3 2 3 7 3 3 10 11 7 14 11 11 7 8 9 13 17 19 21 21 22 22 21 21 19 20 18 18 16 13 10 10 11 12 13 15 16 17 12 8 9 9 9 9 9 8 8 8 9
10 5 9 5 5 2 5 13 7 12 12 10 6 10 12 14 14 17 21 21 22 21 20 20 21 21 20 17 14 14 16 10 11 12 12 17 14 14 13 9 10 10 10 10 10 9 10 10 9
12 12 8 12 3 9 9 14 15 13 14 8 8 10 12 13 16 17 19 20 20 20 19 20 18 20 19 13 12 12 12 11 11 12 13 18 13 15 11 10 11 11 10 11 11 13 10 12 12
10 11 13 14 7 7 12 15 6 13 9 6 7 9 12 15 16 17 17 18 19 20 20 19 20 20 17 13 11 11 13 13 12 11 15 19 17 16 14 9 12 13 13 13 15 12 15 11 10
12 16 14 7 3 11 15 16 18 14 7 5 5 9 13 15 18 19 19 20 20 21 22 20 19 20 17 13 12 10 10 13 13 11 9 13 20 17 12 12 13 15 12 14 16 15 10 6 14
13 15 9 10 13 17 14 18 16 14 10 5 4 8 12 17 20 20 20 23 21 21 19 20 20 20 19 19 14 12 11 10 11 11 12 12 19 18 18 17 15 16 16 13 17 15 19 10 9
12 5 9 14 14 11 17 10 14 19 14 4 5 11 16 21 21 19 22 24 23 22 20 20 20 19 18 20 16 19 15 13 11 13 13 12 15 16 17 19 15 20 15 18 16 16 15 13 14
6 9 10 16 19 22 13 8 10 19 15 3 7 13 18 21 20 23 24 24 23 22 21 22 21 22 21 19 19 16 17 12 10 11 17 15 13 14 24 19 17 16 16 18 19 20 19 14 15
9 10 17 20 12 7 2 3 7 4 1 3 9 16 22 22 21 23 24 23 23 24 24 22 22 24 21 21 24 21 21 18 14 12 13 10 10 10 11 17 17 14 19 18 18 20 22 18 16
8 9 8 4 5 9 10 8 11 11 5 5 12 19 20 19 21 23 26 24 26 28 27 23 24 26 25 24 25 24 22 20 19 17 11 13 8 10 15 12 17 16 17 19 20 21 19 19 16
1 3 4 8 7 14 14 10 5 13 8 2 13 19 19 21 21 24 26 24 25 27 26 25 26 25 25 24 23 21 23 13 12 16 11 10 6 5 12 16 16 20 20 18 21 17 17 19 16
7 6 5 6 3 6 9 11 7 11 4 7 17 19 19 21 23 25 25 24 25 24 24 25 28 26 26 27 24 24 25 19 15 20 14 10 9 6 7 13 16 19 21 23 20 18 21 20 19
4 6 3 4 6 8 8 19 12 7 8 13 20 20 20 23 24 23 21 24 21 24 23 24 24 25 25 25 22 20 22 21 23 17 17 13 10 8 7 10 17 6 18 20 24 17 22 21 17
6 6 6 5 4 5 10 6 6 4 5 16 19 19 22 23 25 24 24 24 24 25 24 24 23 24 23 22 22 21 19 21 22 21 18 13 12 9 8 8 11 15 15 22 20 22 22 23 21
8 11 14 7 8 9 9 17 13 4 4 13 18 20 22 22 23 23 24 23 23 23 23 23 22 22 21 21 22 22 21 20 19 19 19 18 14 9 9 9 11 9 13 21 23 22 22 25 23
Wind_Direction
254 236 250 229 236 247 65 72 340 347 339 14 331 315 339 320 309 330 65 326 290 272 189 180 189 202 201 202 199 200 206 204 208 211 215 217 225 227 225 220 223 224 228 237 236 243 224 200 192
286 266 229 277 266 321 83 10 354 7 357 332 312 300 280 316 354 325 315 17 283 273 219 201 170 192 194 203 200 199 200 204 217 223 222 227 227 230 235 228 223 227 223 228 236 237 227 195 190
257 246 257 260 303 62 37 13 354 353 326 306 310 293 309 325 346 308 34 342 284 248 248 221 158 204 213 213 212 212 211 215 220 225 233 230 230 231 233 238 231 230 229 224 229 231 228 191 185
270 197 225 260 78 103 344 23 2 334 125 141 339 304 152 279 313 349 335 324 303 257 239 163 172 247 227 217 221 219 221 223 222 226 234 238 236 235 235 238 242 240 231 232 227 223 210 188 184
235 260 248 249 104 85 231 5 344 337 338 338 11 315 322 78 8 344 340 325 311 293 252 250 185 248 241 239 231 229 226 227 224 224 231 234 239 238 231 249 232 251 245 239 230 225 189 184 180
259 281 241 328 69 94 182 6 331 327 334 311 297 327 15 54 16 353 343 333 325 315 301 278 225 244 259 250 250 241 233 231 230 225 232 234 242 249 245 235 236 240 248 241 226 212 180 174 176
290 277 2 351 38 193 55 345 328 344 332 42 344 302 351 14 2 351 341 341 337 327 311 297 285 265 245 271 257 248 239 226 229 232 227 231 243 248 246 241 240 244 252 242 220 197 177 169 161
286 268 259 74 29 43 59 316 1 326 24 29 351 15 357 355 356 1 2 3 352 338 314 309 298 282 267 262 231 249 243 220 217 222 225 228 238 242 239 237 247 246 253 233 214 180 172 163 146
305 245 279 55 307 1 102 334 8 25 290 50 37 29 9 11 16 22 21 21 12 7 352 339 307 296 286 271 267 213 241 234 218 220 222 222 239 237 231 227 245 238 245 215 208 174 176 150 138
277 284 62 23 330 318 336 354 341 336 52 23 9 11 31 29 29 31 28 24 18 15 10 359 335 318 295 281 275 260 253 232 227 227 227 221 232 233 246 245 211 261 258 202 187 163 140 138 139
38 347 43 55 321 326 329 341 331 331 62 22 356 9 36 32 31 30 27 22 15 11 8 3 358 332 311 293 280 286 255 246 238 229 224 226 229 233 215 214 212 197 196 143 169 166 158 153 147
290 69 352 245 303 321 341 317 45 62 67 10 38 52 42 37 34 25 21 16 12 9 5 0 358 354 334 311 293 273 276 264 247 241 233 219 227 228 216 206 208 135 170 143 131 125 29 117 132
240 100 53 304 301 312 331 360 68 74 19 52 71 54 42 38 32 26 18 14 9 7 1 359 354 352 347 329 302 283 265 271 265 252 246 231 226 221 209 196 171 154 155 153 150 157 141 83 42
15 303 276 94 323 292 350 333 202 76 16 80 72 57 42 33 27 20 14 9 6 1 360 353 350 347 346 340 323 298 281 261 266 254 250 240 232 223 208 186 188 156 167 154 158 161 165 154 142
306 294 113 152 208 293 316 191 165 6 33 88 57 44 39 29 24 18 9 4 0 357 355 355 352 347 345 338 333 314 295 277 260 270 250 243 236 232 212 192 190 173 166 158 159 153 152 152 158
214 230 4 130 235 161 322 304 104 34 81 106 69 47 28 25 24 13 6 360 357 351 355 353 348 346 342 335 328 326 308 290 279 262 260 250 239 235 218 196 189 170 160 165 156 158 154 154 164
204 336 315 298 210 210 317 297 319 69 113 117 69 35 16 8 17 10 2 359 352 348 348 351 347 342 338 331 326 325 322 306 284 272 259 253 248 229 231 196 192 165 173 166 164 168 171 162 167
305 303 301 290 50 314 276 278 315 94 123 111 57 27 17 13 10 1 350 354 352 346 343 344 341 337 332 326 323 322 316 316 315 298 266 250 241 241 222 198 183 170 175 175 170 176 186 176 162
300 289 292 289 111 304 304 300 342 122 137 120 51 25 18 17 1 357 353 352 351 349 339 337 337 329 325 320 317 320 320 314 304 303 306 256 242 223 231 205 175 184 179 183 177 168 173 172 165
292 291 297 314 187 309 307 297 132 156 138 117 38 22 14 1 353 351 353 353 350 347 334 327 328 328 317 312 311 306 305 309 303 293 304 330 250 229 214 209 182 189 181 185 178 170 170 172 170
287 302 319 299 305 280 285 281 154 172 152 138 50 5 3 357 353 354 356 349 340 338 330 322 318 319 310 305 301 303 292 297 307 312 304 320 336 243 211 216 193 187 187 188 175 172 177 162 189
296 14 316 304 309 302 319 290 168 180 177 129 25 9 357 352 358 355 348 344 338 327 322 313 306 309 303 297 293 296 296 292 294 301 308 306 294 310 218 212 214 194 186 184 180 176 169 167 180
301 342 303 289 284 299 275 242 257 165 199 100 12 3 358 355 350 350 344 333 331 320 316 309 306 307 299 294 288 290 289 290 285 290 300 299 291 298 306 205 206 200 192 192 180 177 179 172 174
304 285 298 274 267 260 127 272 234 175 161 1 359 359 355 350 345 339 335 325 320 319 314 306 309 303 304 299 295 287 286 291 288 280 290 305 308 305 299 236 203 207 202 183 182 180 180 179 178
260 307 311 296 227 276 151 314 249 140 127 37 357 357 349 344 338 336 329 328 324 319 320 315 316 317 306 308 295 293 290 281 285 281 282 296 305 311 327 315 230 193 191 191 183 184 180 175 180
330 294 266 288 296 296 315 253 294 132 140 30 356 356 347 339 334 331 328 325 321 322 320 325 314 316 323 313 304 294 289 276 283 275 265 278 267 281 296 302 337 203 195 187 184 183 180 176 181
136 215 14 291 259 276 235 237 140 158 212 357 344 350 343 333 330 328 325 323 323 321 323 328 323 313 309 307 307 311 315 292 279 279 266 265 268 253 300 299 275 316 197 187 195 183 179 181 173
270 120 177 198 269 268 266 300 272 186 344 341 346 340 335 329 324 326 326 322 326 330 327 326 320 314 312 310 307 305 309 303 313 276 269 254 265 257 276 291 309 264 235 189 186 187 179 179 177
182 214 222 290 242 264 301 279 112 12 0 345 333 336 332 329 330 329 326 332 330 329 327 323 321 316 312 309 306 307 304 303 306 309 274 258 260 242 256 283 286 285 301 204 184 184 179 178 179
276 246 214 217 211 226 268 275 281 218 358 344 334 332 331 329 327 320 331 328 327 326 326 322 319 314 312 309 310 304 303 301 296 299 296 296 254 227 240 261 264 295 251 253 178 182 179 179 184